Location: Unspecified
(0.0000°N, 0.0000°E)
Time: 04:43:13
(UTC+00:00)

deb Delta 104 - Pass Details

Date: 06 March 2026
Orbit: 1339 x 1584 km, 100.8° (Epoch: 15 April)

Event Time Altitude Azimuth Distance (km) Brightness Sun altitude
Exits shadow 19:50:07 13° 140° (SE) 3,554 ? -24.6°
Drops below altitude 10° 19:51:16 10° 146° (SSE) 3,775 ? -24.9°
Sets 19:55:22 0° 163° (SSE) 4,774 ? -25.9°
